Home   Weather   San Francisco   Past weeks
Flag for USA

Past Weather in San Francisco, California, USA — Yesterday and Last 2 Weeks

Now
58 °F

Mostly cloudy.


Feels Like: 54 °F
Forecast: 58 / 51 °F
Wind: 17 mph from South

Location: San Francisco International Airport

Current Time: Mar 19, 2019 at 11:16:50 pm

Latest Report: Mar 19, 2019 at 9:56 pm


Visibility: 10 mi

Pressure: 29.85 "Hg

Humidity: 62%

Dew Point: 45 °F

Location of San FranciscoLocation

Past Weather in San Francisco — Graph

°F

San Francisco Temperature Yesterday

Maximum temperature yesterday: 71 °F (at 2:56 pm)
Minimum temperature yesterday: 52 °F (at 4:56 am)
Average temperature yesterday: 57 °F

High & Low Weather Summary for the Past Weeks

 TemperatureHumidityPressure
High71 °F (Mar 18, 2:56 pm)93% (Mar 5, 6:24 pm)30.28 "Hg (Mar 5, 6:24 pm)
Low41 °F (Mar 11, 5:56 am)31% (Mar 14, 2:56 pm)29.57 "Hg (Mar 6, 3:56 am)
Average53 °F70%30.00 "Hg
* Reported Mar 4 8:56 pm — Mar 19 9:56 pm, San Francisco. Weather by CustomWeather, © 2019

Note: Actual official high and low records may vary slightly from our data, if they occured in-between our weather recording intervals... More about our weather records

Advertising

San Francisco Weather History for the Previous 24 Hours

Scroll right to see more
 ConditionsComfort  
Time TempWeatherWind HumidityBarometerVisibility
9:56 pm
Tue, Mar 19
58 °FMostly cloudy.17 mph62%29.85 "Hg10 mi
8:56 pm58 °FPartly cloudy.7 mph70%29.84 "Hg10 mi
7:56 pm59 °FMostly cloudy.15 mph58%29.81 "Hg10 mi
6:56 pm62 °FPartly sunny.23 mph32%29.79 "Hg10 mi
5:56 pm61 °FPartly sunny.21 mph44%29.79 "Hg10 mi
4:56 pm67 °FMostly cloudy.No wind36%29.78 "Hg10 mi
3:56 pm69 °FMostly cloudy.3 mph36%29.80 "Hg10 mi
2:56 pm67 °FMostly cloudy.10 mph47%29.82 "Hg10 mi
1:56 pm61 °FOvercast.7 mph70%29.84 "Hg9 mi
12:56 pm58 °FOvercast.3 mph78%29.86 "Hg9 mi
11:56 am58 °FPartly sunny.5 mph78%29.88 "Hg8 mi
10:56 am59 °FPartly sunny.3 mph75%29.89 "Hg8 mi
9:56 am56 °FPartly sunny.3 mph81%29.90 "Hg8 mi
8:56 am55 °FPartly sunny.No wind80%29.91 "Hg8 mi
7:56 am53 °FPartly sunny.3 mph83%29.91 "Hg8 mi
6:56 am52 °FPassing clouds.3 mph83%29.89 "Hg9 mi
5:56 am50 °FPassing clouds.3 mph89%29.89 "Hg9 mi
4:56 am50 °FPassing clouds.3 mph89%29.89 "Hg9 mi
3:56 am54 °FPassing clouds.3 mph77%29.90 "Hg10 mi
2:56 am53 °FPassing clouds.No wind80%29.92 "Hg10 mi
1:56 am54 °FPassing clouds.No wind74%29.93 "Hg10 mi
12:56 am53 °FPassing clouds.6 mph80%29.93 "Hg10 mi
11:56 pm
Mon, Mar 18
53 °FPassing clouds.7 mph80%29.94 "Hg10 mi
Weather by CustomWeather, © 2019

See weather overview